Preview of NWS' New Version of Forecast
This preview is not operational and should not be used for support decisions.

Regional Weather Roundup (RWR)

Issued by National Weather Service (NWS)

                            
000
ASUS43 KLSX 201607
RWRMO 

WEATHER SUMMARY FOR MISSOURI
NATIONAL WEATHER SERVICE SPRINGFIELD MO
1000 AM CST WED FEB 20 2019

NOTE: "FAIR" INDICATES FEW OR NO CLOUDS BELOW 12,000 FEET WITH NO
       SIGNIFICANT WEATHER AND/OR OBSTRUCTIONS TO VISIBILITY.
       CURRENT SKY AND/OR WEATHER CONDITIONS ARE NOT AVAILABLE FOR
       CHILLICOTHE AND FARMINGTON.

MOZ001>031-035>038-043-044-053-054-201700-
...NORTHERN AND WESTERN MISSOURI...
  
CITY           SKY/WX    TMP DP  RH WIND       PRES   REMARKS
KANSAS CTY INT CLOUDY    31  28  89 SW15      29.75S WCI  20          
KANSAS C DTWN  CLOUDY    34  28  79 SW15      29.77S WCI  24          
LEE'S SUMMIT   CLOUDY    32  31  96 SW12      29.76R WCI  23          
ST JOSEPH      CLOUDY    30  28  92 SW14      29.76R WCI  19          
CHILLICOTHE      N/A     33  32  96 SW8       29.74F WCI  26          
KIRKSVILLE     CLOUDY    33  33 100 S10       29.72F FOG     WCI  25  
     
$$
MOZ066>068-077>081-088>096-101>105-201700-
...SOUTHWEST MISSOURI...
  
CITY           SKY/WX    TMP DP  RH WIND       PRES   REMARKS
SPRINGFIELD    CLOUDY    36  33  89 SW15      29.82R WCI  27          
JOPLIN         CLOUDY    35  32  88 W16G24    29.86R WCI  25          
BRANSON        CLOUDY    34  34 100 CALM      29.85R FOG              
               
$$
MOZ032>034-039>042-045>050-055>058-069>072-201700-
...CENTRAL MISSOURI...  
  
CITY           SKY/WX    TMP DP  RH WIND       PRES   REMARKS
COLUMBIA       CLOUDY    34  32  92 S13       29.77S WCI  25          
JEFFERSON CITY CLOUDY    36  33  89 SW8       29.80F WCI  30          
ROLLA          CLOUDY    34  32  92 SW10      29.79S FOG     WCI  26  
SEDALIA        CLOUDY    33  32  96 SW14      29.78S WCI  23          
WHITEMAN AFB   CLOUDY    33  33 100 SW12      29.74  WCI  25          
WARRENSBURG    CLOUDY    32  32 100 SW13      29.79R WCI  22          
OSAGE BEACH    CLOUDY    35  35 100 SW9       29.81S WCI  28          
               
$$
MOZ051-052-059>065-201700-
...EAST CENTRAL MISSOURI...
  
CITY           SKY/WX    TMP DP  RH WIND       PRES   REMARKS
ST LOUIS INTL  CLOUDY    35  33  92 S8        29.79F FOG     WCI  29  
SPIRIT OF STL  CLOUDY    36  34  92 SW5       29.79F                  
ST CHARLES     FOG       34  34 100 S5        29.79F VSB 1/2 WCI  30  
                   
$$
MOZ072>076-082>087-097>100-106>115-201700-
...SOUTH CENTRAL AND SOUTHEAST MISSOURI...
  
CITY           SKY/WX    TMP DP  RH WIND       PRES   REMARKS
CAPE GIRARDEAU CLOUDY    42  40  92 W5        29.84S FOG              
FARMINGTON     CLOUDY    36  36 100 SW5       29.81S FOG              
POPLAR BLUFF   CLOUDY    42  42 100 SW5       29.83F                  
WEST PLAINS    CLOUDY    38  36  92 W10       29.83S                  
                                       
$$